Cherry Point, NC

5:15 AM EDT on September 26, 2016 (GMT -0400)
Cherry Point Marine Corps Air Station

Weather History for KNKT - January, 2014

Change the Weather History Date:

Sunday, January 19, 2014

  Actual Average Record
Temperature  
Mean Temperature 40 °F -  
Max Temperature 54 °F 51 °F 72 °F (2001)
Min Temperature 25 °F 32 °F 12 °F (2005)
Degree Days  
Heating Degree Days 26    
Moisture  
Dew Point 26 °F    
Average Humidity 58    
Maximum Humidity 82    
Minimum Humidity 36    
Precipitation  
Precipitation 0.00 in - - ()
Sea Level Pressure  
Sea Level Pressure 29.99 in    
Wind  
Wind Speed 6 mph (SW)    
Max Wind Speed 17 mph    
Max Gust Speed 22 mph    
Visibility 10 miles    
Events      
Averages and records for this station are not official NWS values.
T = Trace of Precipitation, MM = Missing Value Source: NWS Daily Summary

Daily Weather History Graph

Daily Weather History Graph

Search for Another Location

Airport or City:

Trip Planner

Search our weather history database for the weather conditions in past years. The results will help you decide how hot, cold, wet, or windy it might be!

Date:

Astronomy

Jan. 19, 2014 Rise Set
Actual Time 7:13 AM EST 5:23 PM EST
Civil Twilight 6:46 AM EST 5:50 PM EST
Nautical Twilight 6:15 AM EST 6:21 PM EST
Astronomical Twilight 5:45 AM EST 6:51 PM EST
Moon 8:49 PM EST (1/19) 8:51 AM EST (1/19)
Length of Visible Light 11h 04m
Length of Day
10h 09m
Waning Gibbous, 89% of the Moon is Illuminated
Jan 19
Waning Gibbous
Jan 24
Last Quarter
Jan 30
New
Feb 6
First Quarter
Feb 14
Full

Hourly Weather History & Observations

Time (EST) Temp. Windchill Dew Point Humidity Pressure Visibility Wind Dir Wind Speed Gust Speed Precip Events Conditions
12:54 AM 28.0 °F - 19.0 °F 69% 30.06 in 10.0 mi Calm Calm - N/A   Clear
1:54 AM 25.0 °F 20.7 °F 19.9 °F 81% 30.08 in 10.0 mi SW 3.5 mph - N/A   Clear
2:54 AM 26.1 °F - 21.0 °F 81% 30.06 in 10.0 mi Calm Calm - N/A   Clear
3:54 AM 28.9 °F 22.8 °F 19.0 °F 67% 30.05 in 10.0 mi SSW 5.8 mph - N/A   Partly Cloudy
4:54 AM 30.0 °F 26.5 °F 19.9 °F 66% 30.04 in 10.0 mi South 3.5 mph - N/A   Clear
5:54 AM 32.0 °F 27.5 °F 19.9 °F 61% 30.03 in 10.0 mi South 4.6 mph - N/A   Clear
6:54 AM 37.0 °F 30.4 °F 19.0 °F 48% 30.02 in 10.0 mi SSW 9.2 mph - N/A   Partly Cloudy
7:54 AM 39.9 °F 33.9 °F 21.0 °F 47% 30.02 in 10.0 mi SW 9.2 mph - N/A   Scattered Clouds
8:54 AM 43.0 °F 38.8 °F 25.0 °F 49% 30.02 in 10.0 mi SSW 6.9 mph - N/A   Mostly Cloudy
9:54 AM 46.9 °F - 27.0 °F 46% 30.03 in 10.0 mi SW 13.8 mph - N/A   Mostly Cloudy
10:54 AM 50.0 °F - 24.1 °F 36% 30.01 in 10.0 mi SW 12.7 mph 20.7 mph N/A   Mostly Cloudy
11:54 AM 52.0 °F - 28.0 °F 40% 29.98 in 10.0 mi WSW 16.1 mph 21.9 mph N/A   Scattered Clouds
12:54 PM 52.0 °F - 32.0 °F 47% 29.94 in 10.0 mi WSW 10.4 mph - N/A   Mostly Cloudy
1:54 PM 54.0 °F - 34.0 °F 47% 29.92 in 10.0 mi West 17.3 mph - N/A   Scattered Clouds
2:54 PM 54.0 °F - 30.9 °F 41% 29.92 in 10.0 mi WSW 17.3 mph - N/A   Partly Cloudy
3:54 PM 53.1 °F - 28.9 °F 40% 29.93 in 10.0 mi West 15.0 mph - N/A   Clear
4:54 PM 51.1 °F - 28.9 °F 43% 29.93 in 10.0 mi West 11.5 mph - N/A   Clear
5:54 PM 44.1 °F 40.8 °F 30.0 °F 58% 29.95 in 10.0 mi WSW 5.8 mph - N/A   Clear
6:54 PM 43.0 °F 41.3 °F 30.9 °F 62% 29.96 in 10.0 mi SSW 3.5 mph - N/A   Clear
7:54 PM 37.0 °F - 30.9 °F 79% 29.97 in 10.0 mi Calm Calm - N/A   Clear
8:54 PM 35.1 °F - 30.0 °F 82% 29.98 in 10.0 mi Calm Calm - N/A   Clear
9:54 PM 37.9 °F 32.7 °F 28.9 °F 70% 29.98 in 10.0 mi SW 6.9 mph - N/A   Clear
10:54 PM 39.9 °F 34.5 °F 28.9 °F 65% 29.98 in 10.0 mi SW 8.1 mph - N/A   Clear
11:54 PM 42.1 °F 37.1 °F 28.9 °F 60% 29.97 in 10.0 mi SW 8.1 mph - N/A   Clear